Location: Mahoning Valley Cortese Observatory
(41.2500°N, 80.9800°W)
Time: 19:49:31
(UTC-04:00)

ISS - Visible Passes

Search period start: 23 September 2017 00:00
Search period end: 03 October 2017 00:00
Orbit: 401 x 407 km, 51.6° (Epoch: 24 September)

Date Brightness Start Highest point End Pass type
(mag) Time Alt. Az. Time Alt. Az. Time Alt. Az.
24 Sep -2.9 20:44:39 10° SSW 20:47:03 33° SSE 20:47:03 33° SSE visible
25 Sep -2.3 19:53:05 10° S 19:55:33 20° SE 19:57:36 12° E visible
25 Sep -1.7 21:28:38 10° WSW 21:30:18 26° W 21:30:18 26° W visible
26 Sep -3.9 20:36:10 10° SW 20:39:26 86° NW 20:40:36 37° NE visible
27 Sep -3.5 19:43:59 10° SW 19:47:08 48° SE 19:50:19 10° ENE visible
27 Sep -1.7 21:20:56 10° W 21:23:25 25° NW 21:23:25 25° NW visible
28 Sep -2.6 20:28:09 10° W 20:31:15 39° NNW 20:33:24 17° NE visible
29 Sep -3.5 19:35:35 10° WSW 19:38:49 69° NW 19:42:06 10° NE visible
29 Sep -1.4 21:13:26 10° WNW 21:15:46 18° NNW 21:15:53 18° NNW visible
30 Sep -1.7 20:20:27 10° WNW 20:23:10 23° NNW 20:25:38 11° NNE visible
01 Oct -2.3 19:27:35 10° W 19:30:36 33° NNW 19:33:37 10° NE visible
01 Oct -1.2 21:05:55 10° NW 21:07:49 14° N 21:07:57 14° N visible
02 Oct -1.3 20:12:55 10° NW 20:15:07 17° NNW 20:17:20 10° NNE visible
